Current Version              Previous Version:    01  02  03  04  05  06  07  08  09  10  11  12  13  14  15  16  17  18  19  20  21  22  23  24  25  26  27  28  29  30  
   31  32  33  34  35  36  37  38  39  40  41  42  43  44  45  46  47  48  49  50  51  52  53  54  55  56  57  58  59  60  

[Printable]
508
ASUS44 KLUB 232301
RWRTX
WEST TEXAS WEATHER ROUNDUP
NATIONAL WEATHER SERVICE LUBBOCK TX
600 PM CDT TUE SEP 23 2014

NOTE: "FAIR" INDICATES FEW OR NO CLOUDS BELOW 12,000 FEET WITH NO
SIGNIFICANT WEATHER AND/OR OBSTRUCTIONS TO VISIBILITY.

TXZ004-006>008-010-012-014-016-OKZ002-240000-
TEXAS PANHANDLE/OKLAHOMA PANHANDLE

CITY           SKY/WX    TMP DP  RH WIND       PRES   REMARKS
AMARILLO       MOSUNNY   80  59  48 S16       30.08F
BORGER         PTSUNNY   85  57  38 SW15G24   30.03F
CANADIAN       CLOUDY    85  61  44 S17G24    30.01S
DALHART        SUNNY     85  54  34 S15       30.05F
DUMAS          SUNNY     83  58  41 S18G25    30.05F
GUYMON         SUNNY     88  56  33 S22       29.96F
HEREFORD       PTSUNNY   80  62  55 S20       30.10F
PAMPA          PTSUNNY   81  56  43 SW10G24   30.06S
PERRYTON       MOSUNNY   85  55  35 S21G28    30.00F
$$

TXZ026-029-035-045-048-240000-
SOUTHERN PANHANDLE/SOUTH PLAINS/ROLLING PLAINS

CITY           SKY/WX    TMP DP  RH WIND       PRES   REMARKS
CHILDRESS      SUNNY     87  63  44 S17G23    30.05F
SEMINOLE       CLOUDY    74  64  73 SE3       30.12F
LUBBOCK        MOSUNNY   80  60  50 S13       30.11S
PLAINVIEW      PTSUNNY   80  61  52 S12G18    30.10S
SNYDER         CLOUDY    78  66  66 E6        30.10S
$$

TXZ052-054-060>062-072-078-127-140-154-169-240000-
PERMIAN BASIN/CONCHO VALLEY/BIG COUNTRY/EDWARDS PLATEAU

CITY           SKY/WX    TMP DP  RH WIND       PRES   REMARKS
ABILENE        PTSUNNY   84  61  45 S8        30.07F
BIG SPRING     CLOUDY    84  58  41 S8        30.10F
BRADY          SUNNY     82  57  42 SE9       30.08S
JUNCTION       RAIN      73  70  90 NE16      30.08R FOG
MIDLAND        PTSUNNY   83  60  45 SE10      30.09F
ODESSA         PTSUNNY   81  60  48 SE12      30.10F
SAN ANGELO     PTSUNNY   84  63  49 E12       30.06S
SONORA         CLOUDY    84  61  45 E7        30.11S
SWEETWATER     CLOUDY    82  64  54 SE6       30.12S
WINK           CLOUDY    83  57  41 CALM      30.06F
$$

TXZ055-058-074-075-080-082-240000-
FAR WEST/SOUTHWEST MOUNTAINS/TRANS PECOS

CITY           SKY/WX    TMP DP  RH WIND       PRES   REMARKS
ALPINE         CLOUDY    77  53  43 SE9       30.22S
DRYDEN           N/A     91  58  32 E16G24    30.03F
EL PASO        MOSUNNY   82  57  42 E3        30.09S
FORT STOCKTON  MOSUNNY   82  56  40 SE10      30.08F
GUADALUPE PASS CLOUDY    76  60  57 SW8       30.23S
MARFA          CLOUDY    75  52  43 SE6       30.20F
PRESIDIO       FAIR      87  52  30 NE5       30.02F
$$

TXZ014-016-019-021>030-083-240000
TEXAS TECH WEST TEXAS MESONET/TEXAS PANHANDLE/NORTHERN SOUTH PLAINS

CITY           SKY/WX    TMP DP  RH WIND       PRES   REMARKS
ABERNATHY 5ENE   N/A     80  59  50 S14       30.12F
AMARILLO 9NNE    N/A     81  60  47 S15       30.06S
AMARILLO 7SSE    N/A     81  60  49 S20       30.09F
AMHERST 1NE      N/A     78  60  54 S13       30.12S
BOOTLEG 11WNW    N/A     79  58  49 S18       30.13F
CANADIAN 6E      N/A     83  62  48 S18       30.00F
CAPROCK CYN SP   N/A     83  60  44 S17       30.07F
CHILDRESS 2NNE   N/A     85  62  44 S14       30.04S
CLARENDON 2WSW   N/A     85  55  35 S15       30.06S
CLAUDE 12SW      N/A     80  61  50 S15       30.09F
DIMMITT 2NE      N/A     78  58  50 S18       30.11F
FLOYDADA 2NNE    N/A     79  59  50 S15       30.11S
FRIONA 2NE       N/A     78  58  50 S17       30.12S
GOODLETT 3W      N/A     87  59  39 S12       30.03F
HART 3N          N/A     77  59  53 S14       30.12S
HEREFORD 2NW     N/A     79  57  47 S16       30.10F
MCLEAN 1E        N/A     83  56  39 S15       30.04S
MEMPHIS 1NE      N/A     87  59  38 S10       30.03S
MULESHOE 2SSW    N/A     77  58  51 S13       30.11F
OLTON 6S         N/A     78  58  50 S16       30.12R
PALO DURO SP     N/A     81  60  48 S16       30.09F
PAMPA 2E         N/A     83  58  41 S16       30.06S
PLAINVIEW 1S     N/A     80  60  50 S14       30.10F
SILVERTON 7ESE   N/A     81  60  48 S14       30.09F
TULIA 2ENE       N/A     81  58  46 S15       30.10F
TURKEY 2WSW      N/A     84  61  46 S15       30.06
UMBARGER 3NNE    N/A     80  60  50 S16       30.10F
$$

TXZ033>036-039>041-045>048-240000
TEXAS TECH WEST TEXAS MESONET/SOUTH PLAINS

CITY           SKY/WX    TMP DP  RH WIND       PRES   REMARKS
AIKEN 3WSW       N/A     79  63  58 S10       30.12S
ANTON 6SSW       N/A     79  61  54 S17       30.11F
BROWNFIELD 2S    N/A     77  61  57 S9        30.12F
DENVR CTY 7WNW   N/A     70  62  75 NE7       30.13F
GAIL 2ESE        N/A     76  67  71 E7        30.08F
LAMESA 2SE       N/A     77  65  66 S7        30.12S
LEVELLAND 4S     N/A     76  59  56 S14       30.12F
LUBBOCK 3WNW     N/A     80  60  49 S13       30.11F
MORTON 1ENE      N/A     77  60  55 S16       30.12F
ODONNELL 1N      N/A     77  62  59 S6        30.11F
PLAINS 3N        N/A     72  58  60 SE8       30.14F
RALLS 1SE        N/A     80  60  50 SW12      30.12S
REESE CENTER     N/A     79  59  49 S15       30.11F
SEMINOLE 2NNE    N/A     72  64  74 SE6       30.12F
SLATON 2NE       N/A     79  63  58 S10       30.11S
SNYDER 3E        N/A     78  67  67 E7        30.09F
SUNDOWN 8SW      N/A     75  59  58 S15       30.13F
TAHOKA 3NNE      N/A     79  62  56 S9        30.11S
WOLFFORTH 6SSW   N/A     78  62  57 S12       30.12S
$$

TXZ031-032-036>038-042>044-240000-
TEXAS TECH WEST TEXAS MESONET/ROLLING PLAINS

CITY           SKY/WX    TMP DP  RH WIND       PRES   REMARKS
ASPERMONT 3NE    N/A     84  65  54 SE6       30.06S
FLUVANNA 3WNW    N/A     75  63  64 S3        30.11S
GRAHAM 5SSW      N/A     79  63  58 S13       30.10S
GUTHRIE 10WSW    N/A     84  64  49 S12       30.06S
HASKELL 1NW      N/A     86  58  39 S8        30.05F
JAYTON 1SSE      N/A     84  62  46 S8        30.07S
KNOX CITY 3NW    N/A     87  59  39 S8        30.05S
LK A HENRY 1NW   N/A     80  65  61 S6        30.08S
NORTHFIELD 1S    N/A     85  63  46 S12       30.04F
ODELL 4ENE       N/A     88  60  38 S13       30.04F
PADUCAH 10SW     N/A     84  65  52 SE9       30.06S
POST 1NE         N/A     81  64  54 S6        30.09F
RRING SPRGS 3N   N/A     82  64  54 S13       30.08F
SEYMOUR 3NW      N/A     86  57  36 NW7       30.04F
SPUR 1W          N/A     82  61  47 S10       30.08S
WEINERT 2NNE     N/A     85  62  46 S7        30.06S
WHITE RVR 6NE    N/A     80  63  55 S10       30.09S
$$

TXZ052-054-060>062-072-078-127-140-154-169-240000-
TEXAS TECH WEST TEXAS MESONET/PERMIAN BASIN/
CONCHO VALLEY/BIG COUNTRY/EDWARDS PLATEAU

CITY           SKY/WX    TMP DP  RH WIND       PRES   REMARKS
COYANOSA 2N      N/A     85  57  37 S8        30.06S
JUNCTION 1SSW    N/A     80  64  58 SE5       30.08R
MERTZON 3NNE     N/A     85  62  45 SE7       30.08S
SAN ANGELO 7NW   N/A     86  60  41 E8        30.06F
STRLNG CT 4WSW   N/A     83  63  49 E9        30.08S
ST LAWRNCE 5SW   N/A     83  58  42 S9        30.09S
SWEETWATR 11SW   N/A     79  64  60 SE7       30.11F
WALL 1E          N/A     83  62  48 E9        30.07F
$$

TXZ055-058-074-075-080-082-240000-
TEXAS TECH WEST TEXAS MESONET/FAR WEST/SOUTHWEST MOUNTAINS/TRANS PECOS

CITY           SKY/WX    TMP DP  RH WIND       PRES   REMARKS
PRSMN GAP BBNP   N/A     87  56  34 SE10      30.04F
GUADLPE MTN NP   N/A     69  60  71 S5        30.24S
$$